Flag for Germany Weather past 2 weeks in Bornheim (Rheinland), North Rhine-Westphalia, Germany

Now
45 °F

Clear.


Feels Like: 45 °F
Forecast: 36 / 64 °F
Wind: 2 mph from East

Location: Bonn-Hangelar

Current Time: Apr 20, 2015 at 1:50:00 AM

Latest Report: Apr 20, 2015 at 1:00 AM


Visibility: 7 mi

Pressure: 30.25 "Hg

Humidity: 70%

Dew point: 36 °F

Location of Bornheim (Rheinland)Location

Historic Weather in Bornheim (Rheinland) — Graph

°F

Bornheim (Rheinland) temperature yesterday

Maximum temperature yesterday: 58 °F (at 5:00 PM)
Minimum temperature yesterday: 35 °F (at 6:00 AM)
Average temperature yesterday: 47 °F

Past Weeks' High & Low Weather Summary

 TemperatureHumidityPressure
High72 °F (Apr 15, 5:00 PM)97% (Apr 7, 2:00 AM)30.65 "Hg (Apr 7, 2:00 AM)
Low31 °F (Apr 5, 8:00 AM)31% (Apr 10, 3:00 PM)29.93 "Hg (Apr 16, 6:00 PM)
Average49 °F68%30.28 "Hg
* Reported Midnight between Apr 4 and Apr 5 — Midnight between Apr 19 and Apr 20, Bornheim (Rheinland), Weather by CustomWeather, © 2015

Note: Actual official high and low records may vary slightly from our data, if they occured in-between our weather recording intervals... More about our weather records

Advertising

Bornheim (Rheinland) weather history for previous 24 hours

 ConditionsComfort  
Time TempWeatherWind HumidityBarometerVisibility
12:00 AM
Mon, Apr 20
46 °FClear.1 mph71%30.24 "Hg8 mi
11:00 PM
Sun, Apr 19
47 °FClear.2 mph65%30.22 "Hg8 mi
10:00 PM51 °FClear.3 mph60%30.21 "Hg9 mi
9:00 PM52 °FClear.3 mph55%30.18 "Hg10 mi
8:00 PM54 °FScattered clouds.5 mph46%30.16 "Hg13 mi
7:00 PM57 °FOvercast.7 mph39%30.14 "Hg14 mi
6:00 PM57 °FOvercast.7 mph38%30.13 "Hg22 mi
5:00 PM58 °FPartly sunny.7 mph40%30.13 "Hg25 mi
4:00 PM58 °FPartly sunny.6 mph43%30.14 "Hg25 mi
3:00 PM56 °FPartly sunny.7 mph44%30.15 "Hg19 mi
2:00 PM54 °FPartly sunny.5 mph47%30.16 "Hg19 mi
1:00 PM52 °FPartly sunny.5 mph60%30.16 "Hg19 mi
12:00 PM50 °FOvercast.3 mph70%30.17 "Hg19 mi
11:00 AM47 °FOvercast.3 mph69%30.18 "Hg19 mi
10:00 AM44 °FOvercast.3 mph81%30.19 "Hg7 mi
9:00 AM38 °FLow clouds.2 mph94%30.21 "Hg6 mi
8:00 AM36 °FOvercast.2 mph92%30.21 "Hg19 mi
7:00 AM35 °FScattered clouds.1 mph91%30.21 "Hg12 mi
6:00 AM35 °FPassing clouds.2 mph87%30.22 "Hg16 mi
5:00 AM37 °FClear.2 mph83%30.23 "Hg12 mi
4:00 AM40 °FClear.2 mph77%30.23 "Hg14 mi
3:00 AM40 °FClear.2 mph71%30.25 "Hg14 mi
2:00 AM43 °FClear.2 mph60%30.27 "Hg16 mi
1:00 AM44 °FClear.2 mph60%30.27 "Hg18 mi
Weather by CustomWeather, © 2015

See weather overviewHow to use our weather pages